TimePST,TemperatureF,Dew PointF,Humidity,Sea Level PressureIn,VisibilityMPH,Wind Direction,Wind SpeedMPH,Gust SpeedMPH,PrecipitationIn,Events,Conditions,WindDirDegrees,DateUTC
12:53 AM,33.1,30.9,92,30.12,0.5,South,3.5,-,N/A,,Overcast,190,2013-02-04 08:53:00
2:53 AM,33.8,30.2,87,30.06,2.0,SSW,9.2,-,N/A,,Overcast,200,2013-02-04 10:53:00
3:53 AM,32.0,30.2,93,30.07,2.0,SSW,10.4,-,N/A,,Overcast,210,2013-02-04 11:53:00
4:53 AM,32.0,30.9,96,30.12,2.0,SW,6.9,-,N/A,,Overcast,220,2013-02-04 12:53:00
5:26 AM,32.0,30.2,93,30.06,0.2,SSW,9.2,-,N/A,,Overcast,210,2013-02-04 13:26:00
5:53 AM,32.0,30.9,96,30.13,0.2,SSW,9.2,-,N/A,,Overcast,210,2013-02-04 13:53:00
6:53 AM,32.0,30.9,96,30.12,0.2,SSW,5.8,-,N/A,,Overcast,200,2013-02-04 14:53:00
7:53 AM,32.0,30.9,96,30.13,0.2,South,3.5,-,N/A,Fog,Fog,170,2013-02-04 15:53:00
8:53 AM,32.0,30.9,96,30.12,0.2,SSE,9.2,-,N/A,,Overcast,160,2013-02-04 16:53:00
9:10 AM,33.8,32.0,93,30.08,1.0,SSW,8.1,-,N/A,,Overcast,210,2013-02-04 17:10:00
9:53 AM,33.1,32.0,96,30.15,1.0,SSW,8.1,-,N/A,,Overcast,200,2013-02-04 17:53:00
10:47 AM,33.8,32.0,93,30.09,3.0,South,9.2,-,N/A,,Mostly Cloudy,190,2013-02-04 18:47:00
10:53 AM,34.0,32.0,92,30.14,3.0,South,8.1,-,N/A,,Overcast,170,2013-02-04 18:53:00
11:27 AM,35.6,32.0,87,30.07,8.0,South,11.5,-,N/A,,Mostly Cloudy,190,2013-02-04 19:27:00
11:53 AM,35.1,32.0,89,30.12,10.0,South,11.5,-,N/A,,Mostly Cloudy,180,2013-02-04 19:53:00
12:53 PM,36.0,32.0,86,30.10,10.0,South,8.1,-,N/A,,Overcast,180,2013-02-04 20:53:00
1:53 PM,37.0,33.1,86,30.09,10.0,SSW,8.1,-,N/A,,Overcast,200,2013-02-04 21:53:00
2:53 PM,37.9,34.0,86,30.08,10.0,South,5.8,-,N/A,,Mostly Cloudy,180,2013-02-04 22:53:00
3:53 PM,39.0,34.0,82,30.07,10.0,South,3.5,-,N/A,,Mostly Cloudy,170,2013-02-04 23:53:00
4:53 PM,37.0,34.0,89,30.05,10.0,Calm,Calm,-,N/A,,Mostly Cloudy,0,2013-02-05 00:53:00
5:53 PM,37.0,34.0,89,30.05,10.0,Calm,Calm,-,N/A,,Mostly Cloudy,0,2013-02-05 01:53:00
6:53 PM,36.0,34.0,93,30.05,9.0,SSE,3.5,-,N/A,,Mostly Cloudy,160,2013-02-05 02:53:00
7:53 PM,32.0,30.9,96,30.06,1.2,Calm,Calm,-,N/A,,Scattered Clouds,0,2013-02-05 03:53:00
8:08 PM,30.2,30.2,100,30.00,2.5,NE,3.5,-,N/A,Fog,Scattered Clouds,50,2013-02-05 04:08:00
8:18 PM,30.2,28.4,93,30.00,0.8,Calm,Calm,-,N/A,Fog,Scattered Clouds,0,2013-02-05 04:18:00
8:41 PM,28.4,28.4,100,29.99,0.2,East,3.5,-,N/A,Fog,Light Freezing Fog,80,2013-02-05 04:41:00
8:53 PM,30.0,28.0,92,30.05,0.5,East,3.5,-,N/A,Fog,Light Freezing Fog,90,2013-02-05 04:53:00
9:06 PM,30.2,30.2,100,29.99,2.5,Calm,Calm,-,N/A,Fog,Mostly Cloudy,0,2013-02-05 05:06:00
9:34 PM,32.0,30.2,93,29.98,1.5,East,3.5,-,N/A,Fog,Overcast,80,2013-02-05 05:34:00
9:44 PM,30.2,30.2,100,29.98,0.8,Calm,Calm,-,N/A,Fog,Overcast,0,2013-02-05 05:44:00
9:53 PM,30.9,30.0,96,30.04,0.2,Calm,Calm,-,N/A,Fog,Light Freezing Fog,0,2013-02-05 05:53:00
10:24 PM,30.2,30.2,100,29.97,0.8,Calm,Calm,-,N/A,,Mist,0,2013-02-05 06:24:00
10:38 PM,30.2,30.2,100,29.96,1.0,Calm,Calm,-,N/A,,Mist,0,2013-02-05 06:38:00
10:53 PM,32.0,30.0,92,30.01,1.5,NE,3.5,-,N/A,,Mostly Cloudy,50,2013-02-05 06:53:00
11:21 PM,30.2,30.2,100,29.95,1.2,ENE,4.6,-,N/A,,Overcast,60,2013-02-05 07:21:00
11:53 PM,30.9,30.9,100,30.01,0.8,Calm,Calm,-,N/A,,Overcast,0,2013-02-05 07:53:00